Regional Weather Roundup
Issued by NWS Mobile, AL

Home | Current Version | Previous Version | Text Only | Print | Product List | Glossary On
Versions: 1 2 3 4 5 6 7 8 9 10 11 12 13 14 15 16 17 18 19 20 21 22 23 24 25 26 27 28 29 30 31 32 33 34 35 36 37 38 39 40 41 42 43 44 45 46 47 48 49 50
000
ASUS44 KMOB 190410
RWRMOB
REGIONAL WEATHER ROUNDUP
NATIONAL WEATHER SERVICE MOBILE AL
1100 PM CDT THU SEP 18 2014

NOTE: "FAIR" INDICATES FEW OR NO CLOUDS BELOW 12,000 FEET WITH NO
      SIGNIFICANT WEATHER AND/OR OBSTRUCTIONS TO VISIBILITY.

  * THESE STATIONS ARE PART OF THE UNIVERSITY OF SOUTH ALABAMA
    MESONET AND ARE NOT UNDER NWS OR FAA QUALITY CONTROL.

ALZ061>064-190500-
COASTAL ALABAMA

CITY           SKY/WX    TMP DP  RH WIND       PRES   REMARKS
MOBILE REG APT CLOUDY    73  71  93 CALM      29.96R
BROOKLEY FIELD CLOUDY    75  71  87 CALM      29.95S
USA CAMPUS*      N/A     72  72 100 NE3       29.94R
DOG RIVER*     NOT AVBL


CITY           SKY/WX    TMP DP  RH WIND       PRES   REMARKS
MOUNT VERNON*    N/A     68  66  94 CALM      29.96R
SARALAND*      NOT AVBL
BAY MINETTE*   NOT AVBL
LOXLEY*          N/A    N/A N/A N/A CALM      29.95S
ROBERTSDALE*     N/A    N/A N/A N/A E5        29.94S
FAIRHOPE*        N/A     72  72 100 E2        29.94S
ELBERTA*       NOT AVBL
FOLEY*         NOT AVBL
GRAND BAY*       N/A     72  68  88 CALM      29.93R
DAUPHIN ISLND* NOT AVBL
BON SCOUR NWR* NOT AVBL
GULF SHORES    CLOUDY    74  71  89 NE3       29.94R

$$

ALZ051>060-190500-
INTERIOR SOUTHWEST AND SOUTH CENTRAL ALABAMA

CITY           SKY/WX    TMP DP  RH WIND       PRES   REMARKS
GREENVILLE     CLOUDY    70  67  90 CALM      29.97R
EVERGREEN      CLOUDY    73  70  90 CALM      29.96S
CASTLEBERRY*   NOT AVBL
ATMORE*          N/A     73  72  94 N3        29.97S
DIXIE*         NOT AVBL
ANDALUSIA/OPP  CLOUDY    75  66  73 CALM      29.96R
ANDALUSIA*     NOT AVBL
FLORALA APT    CLOUDY    75  65  70 CALM      29.97S
FLORALA*         N/A     72  68  88 CALM      29.93S

$$

FLZ001>006-190500-
WESTERN FLORIDA PANHANDLE

CITY           SKY/WX    TMP DP  RH WIND       PRES   REMARKS
PENSACOLA      CLOUDY    75  72  90 N5        29.93S
NAS PENSACOLA  CLOUDY    77  75  93 CALM      29.93S
MILTON         CLOUDY    75  72  90 NW3       29.95R
WHTNG S FIELD  CLOUDY    77  73  87 NW3       29.95R


CITY           SKY/WX    TMP DP  RH WIND       PRES   REMARKS
WALNUT HILL*   NOT AVBL
JAY*           NOT AVBL
DUKE FIELD     CLOUDY    76  76 100 NE2       29.94F
CRESTVIEW      CLOUDY    75  73  93 CALM      29.96S
VALPARAISO     CLOUDY    78  74  86 N5        29.93F
DESTIN         CLOUDY    82  75  79 NE6       29.93S

$$

MSZ076-079-190500-
INTERIOR SOUTHEAST MISSISSIPPI

CITY           SKY/WX    TMP DP  RH WIND       PRES   REMARKS
LEAKESVILLE*   NOT AVBL
AGRICOLA*      NOT AVBL

$$

MARINE OBSERVATIONS

STATION/POSITION TIME  TEMP    WIND        PRES    WAVE
                       AIR SEA DIR/SP/G            HT/PER
                 (UTC) (F)     (DEG/KT/KT) (MB)    (FT/S)
PASCAGOULA       0400   77                 1013.5R
PETIT BOIS ISLND 0400   81                 1014.0R
GRAND BAY        0300   76      30/  3     1014.0S
KATRINA CUT      0300   81      80/  5     1013.9S
CEDAR POINT      0300   80      60/  5     1013.5F
E DAUPHIN ISLAND 0300   82      60/  5/  6 1013.2F
MIDDLE BAY LIGHT 0300   79      30/ 10     1012.9S
USCG MOBILE BAY  0400      86              1012.8R
STATE DOCKS      0400   77 87              1013.6F
MEAHER PARK      0300   75      50/  2     1013.9S
WEEKS BAY        0300   74                   N/A
12 S ORANGE BCH  0400   83 86   CALM  /  2 1013.7R   1
PENSACOLA BAY    0400   81 87              1013.7F
64 S DAUPHIN ISL 0348   82 85  130/  4/  4 1013.8F   1
67 S FORT MORGAN 0300   81        CALM     1013.5S

$$

SELECTED LOCATIONS ACROSS THE REGION

CITY           SKY/WX    TMP DP  RH WIND       PRES   REMARKS
NEW ORLEANS    CLOUDY    78  70  76 CALM      29.92F
GULFPORT       CLOUDY    73  71  93 CALM      29.94R
PASCAGOULA AP  CLOUDY    73  69  87 CALM      29.94R
PASCAGOULA*      N/A     73  68  83 CALM      29.94R
HATTIESBURG    CLOUDY    73  69  87 NW5       29.98F
LAUREL         CLOUDY    72  66  83 N6        29.99F
MERIDIAN       RAIN      69  67  93 W6        30.01F
JACKSON        CLOUDY    71  67  87 SE8       29.97S
MONTGOMERY     MOCLDY    71  64  78 CALM      29.96S
TROY           MOCLDY    67  65  93 CALM      29.98R
KINSTON*       NOT AVBL
GENEVA*          N/A     70  64  83 CALM      29.97S
ASHFORD*       NOT AVBL
DOTHAN         CLOUDY    73  64  73 NE5       29.99S
PANAMA CITY    CLOUDY    76  71  85 CALM      29.93F

$$



USA.gov is the U.S. government's official web portal to all federal, state and local government web resources and services.